Weather History for Cozumel, Mexico

Change the Weather History Date:

Monday, December 2, 2013

  Actual Average Record
Temperature  
Mean Temperature 72 °F -  
Max Temperature 77 °F 82 °F 86 °F (1996)
Min Temperature 66 °F 71 °F 35 °F (1998)
Cooling Degree Days 6    
Growing Degree Days 22 (Base 50)    
Moisture  
Dew Point 69 °F    
Average Humidity 92    
Maximum Humidity 100    
Minimum Humidity 74    
Precipitation  
Precipitation 0.00 in - - ()
Sea Level Pressure  
Sea Level Pressure 29.93 in    
Wind  
Wind Speed 4 mph ()    
Max Wind Speed 10 mph    
Max Gust Speed -    
Visibility 6.8 miles    
Events      
Averages and records for this station are not official NWS values.
T = Trace of Precipitation, MM = Missing Value Source: Averaged Metar Reports

Daily Weather History Graph

Daily Weather History Graph

Search for Another Location

Airport:

Trip Planner

Search our weather history database for the weather conditions in past years. The results will help you decide how hot, cold, wet, or windy it might be!

Date:

Astronomy

Dec. 02, 2013 Rise Set
Actual Time 6:08 AM CST 5:06 PM CST
Civil Twilight 5:44 AM CST 5:30 PM CST
Nautical Twilight 5:16 AM CST 5:57 PM CST
Astronomical Twilight 4:49 AM CST 6:24 PM CST
Moon 5:37 AM CST (12/2) 5:05 PM CST (12/2)
Length of Visible Light 11h 45m
Length of Day
10h 58m
Waning Crescent, 0% of the Moon is Illuminated
Dec 2
Waning Crescent
Dec 2
New
Dec 9
First Quarter
Dec 17
Full
Dec 25
Last Quarter

Hourly Weather History & Observations

Time (CST) Temp. Dew Point Humidity Pressure Visibility Wind Dir Wind Speed Gust Speed Precip Events Conditions
12:45 AM 69.8 °F 69.8 °F 100% 29.97 in 6.0 mi North 3.5 mph - N/A   Mostly Cloudy
1:43 AM 69.8 °F 68.0 °F 94% 29.94 in 6.0 mi Calm Calm - N/A   Mostly Cloudy
2:50 AM 69.8 °F 69.8 °F 100% 29.96 in 6.0 mi NNE 3.5 mph - N/A   Mostly Cloudy
3:41 AM 69.8 °F 69.8 °F 100% 29.94 in 6.0 mi North 10.4 mph - N/A   Mostly Cloudy
4:50 AM 69.8 °F 68.0 °F 94% 29.93 in 7.0 mi North 8.1 mph - N/A   Mostly Cloudy
5:48 AM 69.8 °F 68.0 °F 94% 29.93 in 7.0 mi North 5.8 mph - N/A   Overcast
6:50 AM 69.8 °F 68.0 °F 94% 29.95 in 7.0 mi North 5.8 mph - N/A   Mostly Cloudy
7:40 AM 71.6 °F 69.8 °F 94% 29.96 in 7.0 mi North 9.2 mph - N/A   Mostly Cloudy
8:40 AM 71.6 °F 69.8 °F 94% 29.99 in 7.0 mi North 9.2 mph - N/A   Mostly Cloudy
9:40 AM 75.2 °F 69.8 °F 83% 29.98 in 7.0 mi NNW 4.6 mph - N/A   Mostly Cloudy
10:40 AM 75.2 °F 69.8 °F 83% 29.96 in 7.0 mi NNW 5.8 mph - N/A   Mostly Cloudy
11:40 AM 77.0 °F 69.8 °F 78% 29.92 in 7.0 mi North 3.5 mph - N/A   Overcast
12:40 PM 77.0 °F 68.0 °F 74% 29.90 in 7.0 mi North 4.6 mph - N/A   Overcast
1:40 PM 73.4 °F 68.0 °F 83% 29.89 in 7.0 mi ESE 8.1 mph - N/A   Overcast
2:50 PM 73.4 °F 69.8 °F 88% 29.91 in 7.0 mi ESE 6.9 mph - N/A   Mostly Cloudy
3:50 PM 71.6 °F 69.8 °F 94% 29.88 in 7.0 mi South 3.5 mph - N/A   Mostly Cloudy
4:40 PM 71.6 °F 69.8 °F 94% 29.89 in 7.0 mi Calm Calm - N/A   Mostly Cloudy
5:46 PM 71.6 °F 68.0 °F 88% 29.89 in 7.0 mi Calm Calm - N/A   Mostly Cloudy
6:47 PM 68.0 °F 66.2 °F 94% 29.91 in 7.0 mi Calm Calm - N/A   Mostly Cloudy
7:44 PM 68.0 °F 66.2 °F 94% 29.93 in 7.0 mi Calm Calm - N/A   Mostly Cloudy
8:50 PM 66.2 °F 66.2 °F 100% 29.97 in 7.0 mi Calm Calm - N/A   Mostly Cloudy
9:44 PM 68.0 °F 68.0 °F 100% 29.94 in 7.0 mi Calm Calm - N/A   Mostly Cloudy
10:45 PM 68.0 °F 68.0 °F 100% 29.93 in 7.0 mi Calm Calm - N/A   Mostly Cloudy
11:41 PM 68.0 °F 68.0 °F 100% 29.88 in 7.0 mi Calm Calm - N/A   Mostly Cloudy